Location: Helsinki
(60.1699°N, 24.9384°E)
Time: 04:34:40
(UTC+02:00)

ISS - Pass Details

Date: 03 December 2021
Orbit: 413 x 422 km, 51.6° (Epoch: 27 January)

Event Time Altitude Azimuth Distance (km) Brightness Sun altitude
Rises 17:58:59 0° 259° (W) 2,389 1.8 -17.8°
Reaches altitude 10° 18:01:46 10° 235° (SW) 1,519 0.1 -18.1°
Maximum altitude 18:03:44 15° 200° (SSW) 1,260 -1.0 -18.3°
Drops below altitude 10° 18:05:42 10° 164° (SSE) 1,512 -1.0 -18.6°
Enters shadow 18:06:08 - 159° (SSE) 1,620 -0.9 -18.6°
